{"data":{"norad_id":64697,"intl_designator":"2025-142B","name":"STARLINK-34584","alt_names":[],"object_type":"PAYLOAD","status":"ACTIVE","operator":null,"country":"US","launch_date":"2025-06-28","launch_site_code":"AFWTR","launch_vehicle":null,"mission":null,"orbit_class":"UNKNOWN","rcs_meters":null,"size_class":null,"mass_kg":null,"dimensions":null,"purposes":["comms"],"wikipedia_slug":null,"has_3d_model":false,"image_url":null,"decayed_at":null,"tle_current":{"epoch":"2026-09-20T04:08:27.443904Z","epoch_age_seconds":159444,"freshness":"FRESH","line1":"1 64697U 25142B   26263.17253986  .00012183  00000+0  42742-3 0  9992","line2":"2 64697  70.0019 181.6563 0003341 270.4664  89.6128 15.29591450 68673","mean_motion":15.2959145,"eccentricity":0.0003341,"inclination_deg":70.0019,"raan_deg":181.6563,"arg_perigee_deg":270.4664,"mean_anomaly_deg":89.6128,"bstar":0.00042742,"rev_number":6867,"period_min":94.14278564384,"perigee_km":474.74238022665,"apogee_km":479.32300461513,"semimajor_km":6855.1696924209,"source":"CELESTRAK","updated_at":"2026-09-21T09:00:35.402896Z"}}}